Regional Weather Roundup
Issued by NWS Sterling, VA

Home | Current Version | Previous Version | Graphics & Text | Print | Product List | Glossary On
Versions: 1 2 3 4 5 6 7 8 9 10 11 12 13 14 15 16 17 18 19 20 21 22 23 24 25 26 27 28 29 30 31 32 33 34 35 36 37 38 39 40 41 42 43 44 45 46 47 48 49 50
000
ASUS41 KLWX 201710
RWRLWX

REGIONAL WEATHER ROUNDUP
NATIONAL WEATHER SERVICE BALTIMORE MD/WASHINGTON DC
1200 PM EST SAT DEC 20 2014

Note: "FAIR" indicates few or no clouds below 12,000 feet
with no significant weather and/or obstructions to visibility.
 TC=TEMPERATURE CELSIUS

 * =Non NWS site. Station does not report precipitation (e.g. rain,
    snow, etc.), thunder, or fog.

DCZ001-MDZ009-015-VAZ040>042-051-053>054-201800-
WASHINGTON METRO

CITY           SKY/WX    TMP DP  RH WIND       PRES   REMARKS
WASHINGTON NAT CLOUDY    38  21  50 CALM      30.31F
DULLES         CLOUDY    32  20  61 CALM      30.29F
ANDREWS AFB    MOSUNNY   34  22  59 VRB5      30.28F
FT BELVOIR     CLOUDY    35  21  57 VRB2      30.30F
QUANTICO       CLOUDY    35  21  56 CALM      30.32F
COLLEGE PARK*  CLOUDY    34  23  64 CALM      30.30F
LEESBURG*      CLOUDY    34  25  69 CALM      30.29F
MANASSAS*      MOSUNNY   36  28  75 N3        30.30F
GAITHERSBURG*  CLOUDY    34  21  60 N5        30.31F

$$

MDZ006>007-011-014-201800-
BALTIMORE METRO

CITY           SKY/WX    TMP DP  RH WIND       PRES   REMARKS
BWI AIRPORT    CLOUDY    34  21  59 CALM      30.29F
MD SCIENCE CTR   N/A     35  21  56 MISG      30.31F
MARTIN STATE   PTSUNNY   36  25  64 CALM      30.32F
ANNAPOLIS      CLOUDY    35  22  58 N5        30.30F
FORT MEADE*    CLOUDY    34  23  64 CALM      30.31F

$$

MDZ012-015-019>023-201800-
MARYLAND EASTERN SHORE

CITY           SKY/WX    TMP DP  RH WIND       PRES   REMARKS
OCEAN CITY     CLOUDY    36  25  64 NW5       30.30S
SALISBURY      CLOUDY    37  25  61 CALM      30.29F
BAY BRIDGE AP*   N/A     36  23  60 N7        30.30F
CAMBRIDGE*     CLOUDY    36  25  64 NE3       30.29F
EASTON*        CLOUDY    37  27  65 N5        30.33F

$$

MDZ017>025-201800-
SOUTHERN MARYLAND

CITY           SKY/WX    TMP DP  RH WIND       PRES   REMARKS
PATUXENT RIVER CLOUDY    34  23  64 W3        30.30F
ST INIGOES     CLOUDY    36  23  59 CALM      30.29F
LEONARDTOWN*   CLOUDY    34  23  64 CALM      30.31F

$$

MDZ003>005-201800-
NORTH CENTRAL MARYLAND

CITY           SKY/WX    TMP DP  RH WIND       PRES   REMARKS
FREDERICK*     SUNNY     34  19  55 CALM      30.32F
HAGERSTOWN APT CLOUDY    31  20  63 CALM      30.27F
WESTMINSTER*   CLOUDY    30  21  69 CALM      30.25F

$$

MDZ501>502-201800-
WESTERN MARYLAND

CITY           SKY/WX    TMP DP  RH WIND       PRES   REMARKS
OAKLAND*       CLOUDY    25 N/A N/A CALM      30.12F
CUMBERLAND*    PTSUNNY   32  21  64 CALM      30.30F

$$

VAZ025>031-201800-
SHENANDOAH VALLEY

CITY           SKY/WX    TMP DP  RH WIND       PRES   REMARKS
WINCHESTER*    CLOUDY    32  19  59 CALM      30.27F
FRONT ROYAL*   FAIR      32  23  69 CALM      30.26F
LURAY*         PTSUNNY   34  28  80 CALM      30.25F
NEW MARKET*    PTSUNNY   31  24  73 CALM      30.25F
STAUNTON*      CLOUDY    32  23  70 CALM      30.25F
WAYNESBORO*    CLOUDY    32  24  71 CALM      30.22F

$$

WVZ021-048>050-054>055-201800-
EASTERN WEST VIRGINIA PANHANDLE

CITY           SKY/WX    TMP DP  RH WIND       PRES   REMARKS
MARTINSBURG    CLOUDY    33  19  56 CALM      30.28F
PETERSBURG*    PTSUNNY   34  22  61 CALM      30.25F

$$

VAZ036>039-050-201800-
CENTRAL FOOTHILLS

CITY           SKY/WX    TMP DP  RH WIND       PRES   REMARKS
CHARLOTTESVILL PTSUNNY   36  24  62 S3        30.27F
CULPEPER*      PTSUNNY   36  27  69 CALM      30.30F
ORANGE*        CLOUDY    34  27  75 CALM      30.30F
GORDONSVILLE*  PTSUNNY   34  24  65 SW3       30.28F
WARRENTON*     FAIR      37  28  70 CALM      30.29F

$$

VAZ055>057-201800-
NORTH AND CENTRAL PIEDMONT

CITY           SKY/WX    TMP DP  RH WIND       PRES   REMARKS
FREDERICKSBRG* PTSUNNY   36  23  60 N3        30.30F
STAFFORD*      PTSUNNY   34  20  55 CALM      30.35F

$$

NCZ024-NYZ072-PAZ021-071-VAZ022-071-201800-
OTHER REGIONAL OBSERVATIONS

CITY           SKY/WX    TMP DP  RH WIND       PRES   REMARKS
NEW YORK CITY  CLOUDY    31  18  58 NW8       30.31S WCI  23
PHILADELPHIA   CLOUDY    34  20  56 NE8       30.29F WCI  27
PITTSBURGH     CLOUDY    29  19  66 N3        30.25F
ROANOKE        CLOUDY    34  24  67 CALM      30.27F
RICHMOND       CLOUDY    37  21  52 NE5       30.30F
RALEIGH        LGT RAIN  34  30  85 NE6       30.29F FOG

$$

ANZ530>537-201800-
MARINE OBSERVATIONS

STATION/POSITION TIME  TEMP    WIND        PRES
                       AIR SEA DIR/SP/G
                 (UTC) (F)     (DEG/KT/KT) (MB)
THOMAS PT LIGHT  1700   34 40   10/  5/  5 1027.1F
BALT KEY BRIDGE  1700   34     300/  3/  5 1026.3F
COVE POINT       1700   33      20/  2/  4 1026.1S
LEWISETTA        1700   34 41  340/  3/  3 1026.0F
SOLOMONS ISLAND  1700      43                N/A

$$



USA.gov is the U.S. government's official web portal to all federal, state and local government web resources and services.